Location: Unspecified
(0.0000°N, 0.0000°E)
Time: 22:17:37
(UTC+00:00)

Hubble Space Telescope - Pass Details

Date: 16 September 2017
Orbit: 537 x 541 km, 28.5° (Epoch: 24 November)

Event Time Altitude Azimuth Distance (km) Brightness Sun altitude
Rises 18:30:40 0° 330° (NNW) 2,664 4.8 -9.0°
Reaches altitude 10° 18:33:53 10° 356° (N) 1,777 3.5 -9.8°
Maximum altitude 18:36:01 14° 28° (NNE) 1,553 2.9 -10.3°
Enters shadow 18:38:05 10° 58° (ENE) 1,766 2.9 -10.8°
